User: anonymous   Login
Location: Unspecified
(0.0000°N, 0.0000°E)
Time: 23:46:24
(UTC+00:00)
Language:

COSMOS 2251 DEB - Orbit

View from above orbital plane
View from above orbital plane
View from above satellite
View from above satellite

Ground track
Ground track

The orbit data is extracted from the following two-line orbital elements,

1 34346U 93036PU  22221.38537234  .00001149  00000-0  73603-3 0  9992
2 34346  73.9978 257.6833 0228118 341.7786  30.4017 13.92524529683696
Epoch (UTC): 09 August 2022 09:14:56
Eccentricity: 0.0228118
inclination: 73.9978°
perigee height: 753 km
apogee height: 1086 km
right ascension of ascending node: 257.6833°
argument of perigee: 341.7786°
revolutions per day: 13.92524529
mean anomaly at epoch: 30.4017°
orbit number at epoch: 68369

The dashed part of the orbit path shows where the satellite is in the earth's shadow,  

DLR